Baker, MT

5:19 AM MDT on April 20, 2018 (GMT -0600)
Baker Municipal

Weather History for KBHK - November, 2014

Change the Weather History Date:

Thursday, November 27, 2014

  Actual Average Record
Temperature  
Mean Temperature 32 °F -  
Max Temperature 42 °F 38 °F 57 °F (2017)
Min Temperature 21 °F 28 °F -11 °F (2015)
Degree Days  
Heating Degree Days 34    
Moisture  
Dew Point 23 °F    
Average Humidity 79    
Maximum Humidity 89    
Minimum Humidity 65    
Precipitation  
Precipitation 0.00 in - - ()
Sea Level Pressure  
Sea Level Pressure 30.02 in    
Wind  
Wind Speed 14 mph (SSE)    
Max Wind Speed 20 mph    
Max Gust Speed 28 mph    
Visibility 9 miles    
Events Snow    
Averages and records for this station are not official NWS values.
T = Trace of Precipitation, MM = Missing Value Source: NWS Daily Summary

Daily Weather History Graph

Daily Weather History Graph

Search for Another Location

Airport or City:

Astronomy

Nov. 27, 2014 Rise Set
Actual Time 7:14 AM MST 4:14 PM MST
Civil Twilight 6:41 AM MST 4:48 PM MST
Nautical Twilight 6:03 AM MST 5:25 PM MST
Astronomical Twilight 5:27 AM MST 6:01 PM MST
Moon 11:23 AM MST (11/27) 10:06 PM MST (11/27)
Length of Visible Light 10h 07m
Length of Day
8h 59m
Waxing Crescent, 32% of the Moon is Illuminated
Nov 27
Waxing Crescent
Nov 29
First Quarter
Dec 6
Full
Dec 14
Last Quarter
Dec 21
New

Hourly Weather History & Observations

Time (MST) Temp. Windchill Dew Point Humidity Pressure Visibility Wind Dir Wind Speed Gust Speed Precip Events Conditions
12:51 AM 21.9 °F 8.7 °F 18.0 °F 85% 30.32 in 10.0 mi SSE 15.0 mph - N/A   Overcast
1:51 AM 21.9 °F 8.7 °F 16.0 °F 78% 30.30 in 10.0 mi SSE 15.0 mph - N/A   Overcast
2:51 AM 21.9 °F 9.2 °F 16.0 °F 78% 30.29 in 10.0 mi SE 13.8 mph - N/A   Overcast
3:51 AM 21.9 °F 8.7 °F 16.0 °F 78% 30.25 in 8.0 mi SE 15.0 mph 23.0 mph 0.00 in Snow Light Snow
4:51 AM 21.0 °F 7.1 °F 17.1 °F 85% 30.25 in 3.0 mi SE 16.1 mph - 0.00 in Snow Light Snow
5:51 AM 21.9 °F 7.3 °F 17.1 °F 82% 30.21 in 8.0 mi SE 18.4 mph - 0.00 in Snow Light Snow
6:19 AM 21.9 °F 7.3 °F 18.0 °F 85% 30.07 in 2.5 mi SE 18.4 mph 24.2 mph 0.00 in Snow Light Snow
6:26 AM 21.9 °F 6.9 °F 18.0 °F 85% 30.07 in 1.2 mi SE 19.6 mph 24.2 mph 0.00 in Snow Light Snow
6:39 AM 21.9 °F 7.8 °F 18.0 °F 85% 30.06 in 3.0 mi SE 17.3 mph 23.0 mph 0.00 in Snow Light Snow
6:51 AM 21.9 °F 7.3 °F 18.0 °F 85% 30.18 in 9.0 mi SE 18.4 mph - 0.00 in   Overcast
6:59 AM 21.9 °F 7.3 °F 18.0 °F 85% 30.05 in 10.0 mi SE 18.4 mph - N/A   Overcast
7:51 AM 21.0 °F 5.7 °F 17.1 °F 85% 30.14 in 10.0 mi SE 19.6 mph 24.2 mph N/A   Scattered Clouds
7:57 AM 21.0 °F 6.2 °F 17.1 °F 85% 30.01 in 10.0 mi SE 18.4 mph 24.2 mph N/A   Mostly Cloudy
8:51 AM 21.9 °F 7.3 °F 19.0 °F 89% 30.09 in 10.0 mi SE 18.4 mph 27.6 mph N/A   Overcast
9:51 AM 24.1 °F 10.1 °F 19.9 °F 84% 30.07 in 10.0 mi SSE 18.4 mph - N/A   Overcast
9:56 AM 24.1 °F 10.6 °F 19.9 °F 84% 29.96 in 10.0 mi SE 17.3 mph - N/A   Overcast
10:51 AM 27.0 °F 14.7 °F 21.0 °F 78% 30.04 in 10.0 mi SE 16.1 mph - N/A   Overcast
11:51 AM 30.0 °F 19.1 °F 23.0 °F 75% 29.98 in 10.0 mi SSE 15.0 mph - 0.00 in   Overcast
12:51 PM 34.0 °F 25.5 °F 26.1 °F 73% 29.93 in 10.0 mi SSE 11.5 mph - N/A   Overcast
1:51 PM 36.0 °F 29.0 °F 27.0 °F 70% 29.90 in 10.0 mi SE 9.2 mph - N/A   Overcast
2:51 PM 39.9 °F 35.8 °F 28.9 °F 65% 29.87 in 10.0 mi SSE 5.8 mph - N/A   Overcast
3:51 PM 42.1 °F 36.6 °F 30.9 °F 65% 29.87 in 10.0 mi WSW 9.2 mph - N/A   Mostly Cloudy
4:51 PM 37.0 °F 30.4 °F 30.0 °F 76% 29.88 in 10.0 mi West 9.2 mph - N/A   Clear
5:51 PM 36.0 °F 29.6 °F 28.9 °F 76% 29.87 in 10.0 mi West 8.1 mph - N/A   Mostly Cloudy
6:51 PM 37.0 °F 31.0 °F 30.0 °F 76% 29.86 in 10.0 mi West 8.1 mph - N/A   Mostly Cloudy
7:51 PM 37.9 °F - 30.9 °F 76% 29.86 in 10.0 mi Calm Calm - N/A   Overcast
8:51 PM 34.0 °F - 30.0 °F 85% 29.85 in 10.0 mi Calm Calm - N/A   Mostly Cloudy
9:51 PM 37.9 °F 34.4 °F 30.0 °F 73% 29.83 in 10.0 mi WSW 4.6 mph - N/A   Clear
10:51 PM 41.0 °F 35.8 °F 30.9 °F 67% 29.79 in 10.0 mi SW 8.1 mph - N/A   Scattered Clouds
11:51 PM 37.0 °F 33.3 °F 28.9 °F 73% 29.78 in 10.0 mi Variable 4.6 mph - N/A   Overcast